KD4WXI Weather Reports


time (UTC)temp
F
wind
direction
speed
knots
gust
knots
rain 1hr
in
rain 24hr
in
rain mn
in
humidity
%
barometer
mb
20260504211403 76 292 1.7 1.7 0.00 0.00 0.00 33 1013.8
20260504210900 76 268 0.9 0.9 0.00 0.00 0.00 34 1013.9
20260504210357 75 348 0.0 0.0 0.00 0.00 0.00 35 1013.9
20260504205854 75 256 0.9 0.9 0.00 0.00 0.00 35 1013.7
20260504205352 75 240 0.9 0.9 0.00 0.00 0.00 35 1013.9
20260504204850 75 313 0.0 0.9 0.00 0.00 0.00 36 1014.1
20260504204348 76 310 0.9 0.9 0.00 0.00 0.00 34 1014.2
20260504203848 76 257 0.9 0.9 0.00 0.00 0.00 35 1014.0
20260504203344 76 285 0.0 0.9 0.00 0.00 0.00 34 1014.3
20260504202840 77 205 1.7 2.6 0.00 0.00 0.00 34 1014.5
20260504202337 77 223 0.9 0.9 0.00 0.00 0.00 33 1014.5
20260504201833 78 263 0.9 1.7 0.00 0.00 0.00 34 1014.6
20260504201331 79 264 0.9 0.9 0.00 0.00 0.00 34 1014.7
20260504200828 79 264 0.9 0.9 0.00 0.00 0.00 33 1014.5
20260504200325 78 283 0.9 0.9 0.00 0.00 0.00 32 1014.7
20260504195821 78 218 1.7 1.7 0.00 0.00 0.00 34 1014.8
20260504195317 78 215 1.7 1.7 0.00 0.00 0.00 33 1015.0
20260504194814 79 275 1.7 1.7 0.00 0.00 0.00 33 1014.9
20260504194310 79 262 1.7 1.7 0.00 0.00 0.00 33 1014.9
20260504193806 79 150 0.0 0.0 0.00 0.00 0.00 33 1015.1
20260504193304 78 278 0.9 0.9 0.00 0.00 0.00 34 1015.2
20260504192802 80 251 2.6 2.6 0.00 0.00 0.00 35 1015.1
20260504192300 79 254 0.9 0.9 0.00 0.00 0.00 32 1015.2
20260504191758 79 309 0.9 0.9 0.00 0.00 0.00 31 1015.3
20260504191255 78 187 1.7 2.6 0.00 0.00 0.00 35 1015.4
20260504190750 79 247 1.7 4.3 0.00 0.00 0.00 34 1015.5
20260504190247 79 243 0.0 0.9 0.00 0.00 0.00 32 1015.4
20260504185743 79 248 1.7 2.6 0.00 0.00 0.00 32 1015.7
20260504185241 79 252 0.9 1.7 0.00 0.00 0.00 35 1015.4
20260504184737 78 267 0.9 1.7 0.00 0.00 0.00 35 1015.4
20260504184233 79 323 0.9 1.7 0.00 0.00 0.00 35 1015.5
20260504183728 78 51 0.0 0.0 0.00 0.00 0.00 37 1015.7
20260504183226 78 258 1.7 1.7 0.00 0.00 0.00 37 1015.9
20260504182724 78 237 0.0 0.9 0.00 0.00 0.00 34 1015.9
20260504182221 78 309 0.0 0.0 0.00 0.00 0.00 37 1015.8
20260504181718 77 282 0.0 0.9 0.00 0.00 0.00 35 1015.8
20260504181216 77 15 0.9 0.9 0.00 0.00 0.00 37 1016.0
20260504180715 78 256 1.7 1.7 0.00 0.00 0.00 37 1016.0
20260504180213 78 267 1.7 1.7 0.00 0.00 0.00 36 1015.8
20260504175710 78 199 0.9 1.7 0.00 0.00 0.00 35 1015.8
20260504175206 77 78 0.9 0.9 0.00 0.00 0.00 37 1016.0
20260504174704 77 213 2.6 2.6 0.00 0.00 0.00 37 1015.8
20260504174202 76 316 0.0 0.9 0.00 0.00 0.00 36 1016.0
20260504173658 77 55 1.7 1.7 0.00 0.00 0.00 33 1016.1
20260504173155 77 230 1.7 1.7 0.00 0.00 0.00 36 1016.2
20260504172652 76 18 0.0 0.9 0.00 0.00 0.00 37 1016.2
20260504172148 77 240 1.7 1.7 0.00 0.00 0.00 38 1016.1
20260504171645 77 8 0.0 0.9 0.00 0.00 0.00 35 1016.2
20260504171142 77 254 0.9 0.9 0.00 0.00 0.00 38 1016.4
20260504170638 76 304 0.0 0.9 0.00 0.00 0.00 34 1016.5
20260504170136 76 302 0.0 0.9 0.00 0.00 0.00 37 1016.6
20260504151027 70 352 0.9 0.9 0.00 0.00 0.00 45 1018.0
20260504150525 71 292 0.9 0.9 0.00 0.00 0.00 43 1017.9
20260504140951 68 55 0.0 1.7 0.00 0.00 0.00 52 1017.8
20260504140447 66 7 0.0 0.9 0.00 0.00 0.00 54 1018.0
20260504130412 57 333 0.0 0.0 0.00 0.00 0.00 72 1017.8
20260504110259 37 0 0.0 0.0 0.00 0.00 0.00 99 1017.7
20260504100217 37 359 0.0 0.0 0.00 0.00 0.00 99 1017.5
20260504090139 38 359 0.0 0.0 0.00 0.00 0.00 99 1017.5
20260504081610 38 352 0.0 0.0 0.00 0.00 0.00 99 1017.4
20260504081106 39 352 0.0 0.0 0.00 0.00 0.00 99 1017.5
20260504080603 39 352 0.0 0.0 0.00 0.00 0.00 99 1017.4
20260504050415 42 353 0.0 0.0 0.00 0.00 0.00 92 1017.8
20260504045912 43 353 0.0 0.0 0.00 0.00 0.00 92 1017.4
20260504045408 43 353 0.0 0.0 0.00 0.00 0.00 92 1017.5
20260504044904 43 353 0.0 0.0 0.00 0.00 0.00 93 1017.3
20260504044402 42 1 0.0 0.0 0.00 0.00 0.00 93 1017.3
20260504043859 42 1 0.0 0.0 0.00 0.00 0.00 92 1017.2
20260504043356 42 1 0.0 0.0 0.00 0.00 0.00 92 1017.3
20260504042854 43 1 0.0 0.0 0.00 0.00 0.00 92 1017.3
20260504042349 42 1 0.0 0.0 0.00 0.00 0.00 92 1017.2
20260504041846 42 1 0.0 0.0 0.00 0.00 0.00 92 1017.2
20260504041342 42 1 0.0 0.0 0.00 0.00 0.00 91 1017.3
20260504040838 43 1 0.0 0.0 0.00 0.00 0.00 91 1017.3
20260504040336 43 348 0.0 0.0 0.00 0.00 0.00 91 1017.4
20260504035832 43 348 0.0 0.0 0.00 0.00 0.00 90 1017.4
20260504035330 43 348 0.0 0.0 0.00 0.00 0.00 89 1017.5
20260504034827 44 348 0.0 0.0 0.00 0.00 0.00 87 1017.5
20260504034324 44 348 0.0 0.0 0.00 0.00 0.00 87 1017.3
20260504033821 44 348 0.0 0.0 0.00 0.00 0.00 87 1017.5
20260504033319 44 348 0.0 0.0 0.00 0.00 0.00 87 1017.5
20260504032815 44 348 0.0 0.0 0.00 0.00 0.00 87 1017.6
20260504032313 44 348 0.0 0.0 0.00 0.00 0.00 87 1017.6
20260504031809 44 348 0.0 0.0 0.00 0.00 0.00 88 1017.6
20260504031307 44 348 0.0 0.0 0.00 0.00 0.00 87 1017.7
20260504030803 44 348 0.0 0.0 0.00 0.00 0.00 87 1017.5
20260504030300 44 348 0.0 0.0 0.00 0.00 0.00 87 1017.5
20260504025756 44 348 0.0 0.0 0.00 0.00 0.00 87 1017.8
20260504025253 45 348 0.0 0.0 0.00 0.00 0.00 86 1017.4
20260504024750 45 348 0.0 0.0 0.00 0.00 0.00 85 1017.5
20260504024247 45 348 0.0 0.0 0.00 0.00 0.00 84 1017.7
20260504023744 45 348 0.0 0.0 0.00 0.00 0.00 84 1017.4
20260504023240 46 348 0.0 0.0 0.00 0.00 0.00 83 1017.6
20260504022736 46 348 0.0 0.0 0.00 0.00 0.00 82 1017.6
20260504022232 46 348 0.0 0.0 0.00 0.00 0.00 81 1017.4
20260504021729 47 348 0.0 0.0 0.00 0.00 0.00 81 1017.3
20260504021226 47 348 0.0 0.0 0.00 0.00 0.00 78 1017.1
20260504020723 47 348 0.0 0.0 0.00 0.00 0.00 79 1017.1
20260504020220 48 348 0.0 0.0 0.00 0.00 0.00 78 1017.3
20260504015716 48 348 0.0 0.0 0.00 0.00 0.00 78 1016.9
20260504015213 48 348 0.0 0.0 0.00 0.00 0.00 77 1017.0
20260504014708 48 348 0.0 0.0 0.00 0.00 0.00 75 1016.7
20260504014205 48 348 0.0 0.0 0.00 0.00 0.00 75 1016.9
20260504013703 49 348 0.0 0.0 0.00 0.00 0.00 72 1016.8
20260504013200 49 348 0.0 0.0 0.00 0.00 0.00 71 1016.9
20260504012657 50 348 0.0 0.0 0.00 0.00 0.00 71 1016.9
20260504012155 50 348 0.0 0.0 0.00 0.00 0.00 71 1016.7
20260504011652 50 348 0.0 0.0 0.00 0.00 0.00 71 1016.8
20260504011148 51 348 0.0 0.0 0.00 0.00 0.00 67 1016.6
20260504010644 51 348 0.0 0.0 0.00 0.00 0.00 66 1016.4
20260504010140 52 347 0.0 0.0 0.00 0.00 0.00 64 1016.3
20260504005637 53 347 0.0 0.0 0.00 0.00 0.00 63 1016.5
20260504005133 53 358 0.0 0.0 0.00 0.00 0.00 61 1016.4
20260504004632 53 358 0.0 0.0 0.00 0.00 0.00 59 1016.4
20260504004129 54 358 0.0 0.0 0.00 0.00 0.00 58 1016.5
20260504003625 54 358 0.0 0.0 0.00 0.00 0.00 57 1016.3
20260504003121 54 358 0.0 0.0 0.00 0.00 0.00 57 1016.3
20260504002618 54 352 0.0 0.0 0.00 0.00 0.00 60 1016.3
20260504002116 55 352 0.0 0.0 0.00 0.00 0.00 57 1016.1
20260504001614 57 353 0.0 0.0 0.00 0.00 0.00 59 1016.3
20260504001109 57 353 0.0 0.0 0.00 0.00 0.00 52 1016.1
20260504000607 58 351 0.0 0.0 0.00 0.00 0.00 48 1016.1
20260504000104 58 347 0.0 0.0 0.00 0.00 0.00 47 1015.9
20260503235603 59 347 0.0 0.0 0.00 0.00 0.00 46 1015.9
20260503235059 59 345 0.0 0.0 0.00 0.00 0.00 44 1016.0
20260503234557 59 345 0.0 0.0 0.00 0.00 0.00 44 1016.0
20260503234054 60 345 0.0 0.0 0.00 0.00 0.00 44 1016.2
20260503233551 61 345 0.0 0.0 0.00 0.00 0.00 42 1016.2
20260503233047 61 345 0.0 0.0 0.00 0.00 0.00 41 1016.1
20260503232544 62 345 0.0 0.0 0.00 0.00 0.00 41 1015.9
20260503232041 62 338 0.0 0.0 0.00 0.00 0.00 40 1016.2
20260503231539 62 338 0.0 0.0 0.00 0.00 0.00 39 1016.1
20260503231035 61 352 0.0 0.0 0.00 0.00 0.00 39 1016.0
20260503230532 62 352 0.0 0.0 0.00 0.00 0.00 41 1016.0
20260503230030 62 348 0.0 0.0 0.00 0.00 0.00 42 1016.1
20260503225526 62 4 0.0 0.0 0.00 0.00 0.00 40 1015.9
20260503225021 63 348 0.0 0.0 0.00 0.00 0.00 40 1016.1
20260503224519 62 334 0.0 0.0 0.00 0.00 0.00 37 1016.2
20260503224017 62 350 0.0 0.0 0.00 0.00 0.00 37 1016.0
20260503223515 62 10 0.0 0.9 0.00 0.00 0.00 39 1016.1
20260503223010 63 348 0.0 0.0 0.00 0.00 0.00 39 1016.1
20260503222508 63 349 0.0 0.0 0.00 0.00 0.00 39 1016.2
20260503222006 63 339 0.0 0.0 0.00 0.00 0.00 38 1016.2
20260503221504 63 336 0.0 0.0 0.00 0.00 0.00 39 1016.3
20260503221001 64 34 0.0 0.0 0.00 0.00 0.00 37 1016.2
20260503220457 64 15 0.9 1.7 0.00 0.00 0.00 33 1016.4
20260503215954 64 316 0.0 0.0 0.00 0.00 0.00 37 1016.5
20260503215451 64 308 0.0 0.0 0.00 0.00 0.00 37 1016.5
20260503214949 64 330 0.0 0.0 0.00 0.00 0.00 37 1016.4
20260503214447 64 337 0.0 0.0 0.00 0.00 0.00 36 1016.2
20260503213943 64 358 0.0 0.0 0.00 0.00 0.00 38 1016.5
20260503213442 64 348 0.0 0.0 0.00 0.00 0.00 33 1016.6
20260503212937 64 342 0.0 0.0 0.00 0.00 0.00 39 1016.7
20260503212435 65 5 0.0 0.0 0.00 0.00 0.00 34 1016.7
20260503211932 64 1 0.0 0.0 0.00 0.00 0.00 36 1016.7